#timestamp,LO_Frequency,Hit,StdDev 
1691492415.5,286047000.6,N
1691492435.3,286046998.1,N
1691492455.2,286047001.1,N
1691492475.0,286046998.2,N
1691492475.9,286046998.2,N
1691492495.8,286046998.7,N
1691492515.6,286046999.3,N
1691492535.4,286046998.7,N
1691492555.3,286046998.5,N
1691492575.1,286046998.1,N
1691492595.9,286047001.2,N
1691492615.7,286046998.5,N
1691492635.5,286047000.9,N
1691492655.4,286046998.2,N
1691492675.2,286046996.6,N
1691492695.0,286046999.5,N
1691492695.9,286046999.5,N
1691492715.8,286046999.8,N
1691492735.6,286047002.8,N
1691492755.5,286047000.2,N
1691492775.3,286047000.5,N
1691492795.1,286047002.3,N
1691492815.9,286047000.6,N
1691492835.7,286047000.8,N
1691492855.5,286047001.2,N
1691492875.4,286047000.9,N
1691492895.2,286047000.3,N
1691492915.1,286046998.5,N
1691492916.0,286046998.5,N
1691492935.8,286047001.1,N
1691492955.6,286047000.7,N
1691492975.5,286046998.1,N
1691492995.3,286046998.3,N
1691493015.1,286046998.3,N
1691493035.9,286046999.2,N
1691493055.7,286046998.6,N
1691493075.6,286046998.7,N
1691493095.4,286046999.4,N
1691493115.2,286046996.7,N
1691493135.1,286046997.6,N
1691493136.0,286046997.6,N
1691493155.8,286046997.2,N
1691493175.6,286046997.5,N
1691493195.5,286046997.6,N
1691493215.3,286046997.1,N
1691493235.2,286046997.3,N
1691493255.9,286046996.9,N
1691493275.7,286046996.5,N
1691493295.6,286046998.7,N
1691493315.4,286046998.8,N
1691493335.2,286046998.2,N
1691493355.1,286046996.5,N
1691493356.0,286046996.5,N
1691493375.8,286046997.5,N
1691493395.7,286046998.0,N
1691493415.5,286046998.0,N
1691493435.3,286046997.7,N
1691493455.2,286046994.9,Y
1691493475.0,286046999.3,P
1691493475.9,286046999.3,N
1691493495.7,286046998.2,P
1691493515.6,286047001.2,N
1691493535.4,286047001.0,N
1691493555.3,286047001.0,N
1691493575.1,286047000.6,N
1691493576.0,286047000.6,N
1691493595.8,286047000.9,N
1691493615.7,286046998.1,N
1691493635.5,286047000.6,N
1691493655.4,286046999.3,N
1691493675.2,286047000.7,N
1691493695.0,286047001.0,N
1691493695.9,286047001.0,N
1691493715.8,286047000.9,N
1691493735.6,286047001.0,N
1691493755.4,286046998.9,N
1691493775.3,286047001.2,N
1691493795.1,286046998.6,N
1691493815.9,286046998.5,N
1691493835.7,286047001.2,N
1691493855.5,286046998.7,N
1691493875.4,286046998.8,N
1691493895.2,286046999.3,N
1691493915.0,286046999.3,N
1691493915.9,286046999.3,N
1691493935.8,286046998.8,N
1691493955.6,286046998.9,N
1691493975.5,286046998.2,N
1691493995.3,286046999.7,N
1691494015.1,286047000.0,N
1691494035.9,286046999.7,N
1691494055.7,286046999.8,N
1691494075.5,286047002.4,N
1691494095.4,286046999.9,N
1691494115.2,286047000.3,N
1691494135.1,286046999.7,N
1691494136.0,286046999.7,N
1691494155.8,286046999.8,N
1691494175.6,286047002.4,N
1691494195.5,286046999.9,N
1691494215.3,286047001.6,N
1691494235.1,286047002.3,N
1691494255.9,286047002.3,N
1691494275.7,286047001.4,N
1691494295.6,286047004.1,Y
1691494315.4,286047004.3,P
1691494335.2,286047001.3,N
1691494355.1,286047004.1,N
1691494356.0,286047004.1,N
1691494375.8,286047001.3,N
1691494395.6,286047004.2,N
1691494415.5,286047001.7,N
1691494435.3,286047003.7,N
1691494455.2,286047003.5,N
1691494475.9,286047003.2,N
1691494495.7,286047003.1,N
1691494515.6,286047003.0,N
1691494535.4,286047003.3,N
1691494555.2,286047003.0,N
1691494575.1,286047004.8,Y
1691494576.0,286047004.8,P
1691494595.8,286047004.0,P
1691494615.7,286047002.0,N
1691494635.5,286047002.8,N
1691494655.3,286047000.5,N
1691494675.2,286047001.0,N
1691494695.0,286046999.8,N
1691494695.9,286046999.8,N
1691494715.8,286047002.4,N
1691494735.6,286047002.8,N
1691494755.4,286046999.8,N
1691494775.3,286047002.4,N
1691494795.1,286047002.4,N
1691494815.8,286047001.9,N
1691494835.7,286047002.8,N
1691494855.5,286047002.8,N
1691494875.4,286047002.0,N
1691494895.2,286047001.8,N
1691494915.0,286047004.3,Y
1691494915.9,286047004.3,P
1691494935.8,286047001.3,N
1691494955.6,286047002.5,N
1691494975.4,286047001.6,N
1691494995.3,286047002.8,N
1691495015.1,286047000.5,N
1691495035.9,286047000.3,N
1691495055.7,286047000.9,N
1691495075.5,286047001.1,N
1691495095.4,286047001.0,N
1691495115.2,286047001.1,N
1691495135.0,286046999.7,N
1691495135.9,286046999.7,N
1691495155.8,286046999.7,N
1691495175.6,286047001.6,N
1691495195.5,286047002.0,N
1691495215.3,286047002.7,N
1691495235.1,286047001.7,N
1691495255.9,286047003.6,Y
1691495275.7,286047002.8,P
1691495295.5,286046999.9,N
1691495315.4,286046999.0,N
1691495335.2,286046999.9,N
1691495355.1,286047000.8,N
1691495356.0,286047000.8,N
1691495375.8,286047000.5,N
1691495395.6,286047000.4,N
1691495415.5,286046998.5,N
1691495435.3,286047000.9,N
1691495455.2,286047001.0,N
1691495475.9,286046998.3,N
1691495495.7,286047000.6,N
1691495515.6,286046999.9,N
1691495535.4,286047000.4,N
1691495555.3,286047000.5,N
1691495575.1,286047001.7,N
1691495576.0,286047001.7,N
1691495595.8,286047002.2,N
1691495615.7,286047002.6,N
1691495635.5,286047002.0,N
1691495655.3,286047002.7,N
1691495675.2,286047001.9,N
1691495695.0,286047001.8,N
1691495695.9,286047001.8,N
1691495715.8,286047002.7,N
1691495735.6,286047000.2,N
1691495755.4,286047002.2,N
1691495775.3,286047002.4,N
1691495795.1,286047000.6,N
1691495815.8,286047000.6,N
1691495835.7,286047000.3,N
1691495855.5,286047000.0,N
1691495875.4,286047000.5,N
1691495895.2,286047000.7,N
1691495915.0,286047002.4,N
1691495915.9,286047002.4,N
1691495935.8,286047001.6,N
1691495955.6,286047001.5,N
1691495975.5,286047002.0,N
1691495995.3,286047001.4,N
